TimeEST,TemperatureF,Dew PointF,Humidity,Sea Level PressureIn,VisibilityMPH,Wind Direction,Wind SpeedMPH,Gust SpeedMPH,PrecipitationIn,Events,Conditions,WindDirDegrees,DateUTC
12:15 AM,60.8,53.6,77,30.16,10.0,NNW,3.5,-,N/A,,Overcast,340,2012-11-20 05:15:00
12:35 AM,59.0,53.6,82,30.15,10.0,Calm,Calm,-,N/A,,Overcast,0,2012-11-20 05:35:00
12:55 AM,59.0,53.6,82,30.15,10.0,Calm,Calm,-,N/A,,Overcast,0,2012-11-20 05:55:00
1:15 AM,59.0,53.6,82,30.15,10.0,NNW,3.5,-,N/A,,Overcast,330,2012-11-20 06:15:00
1:35 AM,59.0,53.6,82,30.14,10.0,NNW,4.6,-,N/A,,Overcast,330,2012-11-20 06:35:00
1:55 AM,59.0,53.6,82,30.14,10.0,NNW,4.6,-,N/A,,Overcast,340,2012-11-20 06:55:00
2:15 AM,59.0,53.6,82,30.14,10.0,NNW,4.6,-,N/A,,Overcast,340,2012-11-20 07:15:00
2:55 AM,59.0,53.6,82,30.13,10.0,North,4.6,-,N/A,,Overcast,360,2012-11-20 07:55:00
3:15 AM,59.0,53.6,82,30.13,10.0,North,3.5,-,N/A,,Overcast,10,2012-11-20 08:15:00
6:55 AM,59.0,53.6,82,30.15,10.0,NW,3.5,-,N/A,,Overcast,320,2012-11-20 11:55:00
7:15 AM,59.0,53.6,82,30.15,10.0,Calm,Calm,-,N/A,,Overcast,0,2012-11-20 12:15:00
7:55 AM,59.0,53.6,82,30.16,10.0,Calm,Calm,-,N/A,,Overcast,0,2012-11-20 12:55:00
8:15 AM,59.0,53.6,82,30.17,10.0,Calm,Calm,-,N/A,,Overcast,0,2012-11-20 13:15:00
8:35 AM,59.0,53.6,82,30.17,10.0,Calm,Calm,-,N/A,,Overcast,0,2012-11-20 13:35:00
8:55 AM,59.0,53.6,82,30.17,10.0,Calm,Calm,-,N/A,,Overcast,0,2012-11-20 13:55:00
9:15 AM,60.8,53.6,77,30.18,10.0,Calm,Calm,-,N/A,,Overcast,0,2012-11-20 14:15:00
9:35 AM,60.8,51.8,72,30.18,10.0,North,3.5,-,N/A,,Overcast,350,2012-11-20 14:35:00
9:55 AM,60.8,51.8,72,30.19,10.0,North,3.5,-,N/A,,Overcast,350,2012-11-20 14:55:00
10:15 AM,60.8,51.8,72,30.19,10.0,NNW,3.5,-,N/A,,Overcast,340,2012-11-20 15:15:00
10:35 AM,60.8,51.8,72,30.19,7.0,North,3.5,-,N/A,,Overcast,360,2012-11-20 15:35:00
10:55 AM,60.8,51.8,72,30.18,1.8,North,3.5,-,N/A,,Haze,10,2012-11-20 15:55:00
11:15 AM,60.8,51.8,72,30.17,3.0,North,3.5,-,N/A,,Haze,360,2012-11-20 16:15:00
11:35 AM,60.8,51.8,72,30.17,10.0,North,4.6,-,N/A,,Overcast,350,2012-11-20 16:35:00
11:55 AM,62.6,51.8,68,30.16,10.0,North,4.6,-,N/A,,Overcast,350,2012-11-20 16:55:00
12:15 PM,62.6,51.8,68,30.14,7.0,North,3.5,-,N/A,,Overcast,10,2012-11-20 17:15:00
12:35 PM,62.6,51.8,68,30.13,4.0,NNE,4.6,-,N/A,,Haze,30,2012-11-20 17:35:00
12:55 PM,62.6,51.8,68,30.13,10.0,North,5.8,-,N/A,,Overcast,350,2012-11-20 17:55:00
1:15 PM,64.4,51.8,64,30.12,10.0,Calm,Calm,-,N/A,,Overcast,0,2012-11-20 18:15:00
1:35 PM,66.2,51.8,60,30.11,10.0,NNW,5.8,-,N/A,,Scattered Clouds,330,2012-11-20 18:35:00
1:55 PM,66.2,51.8,60,30.10,10.0,North,6.9,-,N/A,,Mostly Cloudy,350,2012-11-20 18:55:00
2:15 PM,64.4,51.8,64,30.09,10.0,North,5.8,-,N/A,,Overcast,350,2012-11-20 19:15:00
2:35 PM,64.4,51.8,64,30.08,10.0,North,4.6,-,N/A,,Overcast,360,2012-11-20 19:35:00
2:55 PM,64.4,51.8,64,30.08,10.0,NE,4.6,-,N/A,,Mostly Cloudy,40,2012-11-20 19:55:00
3:15 PM,64.4,53.6,68,30.08,10.0,North,3.5,-,N/A,,Clear,350,2012-11-20 20:15:00
3:35 PM,64.4,53.6,68,30.08,10.0,North,5.8,-,N/A,,Clear,10,2012-11-20 20:35:00
3:55 PM,64.4,51.8,64,30.07,10.0,NNE,3.5,-,N/A,,Clear,20,2012-11-20 20:55:00
4:15 PM,64.4,53.6,68,30.08,10.0,North,3.5,-,N/A,,Scattered Clouds,10,2012-11-20 21:15:00
4:35 PM,64.4,53.6,68,30.08,10.0,Calm,Calm,-,N/A,,Scattered Clouds,0,2012-11-20 21:35:00
4:55 PM,64.4,53.6,68,30.08,10.0,Calm,Calm,-,N/A,,Mostly Cloudy,0,2012-11-20 21:55:00
5:15 PM,62.6,53.6,72,30.08,10.0,Calm,Calm,-,N/A,,Scattered Clouds,0,2012-11-20 22:15:00
5:35 PM,60.8,53.6,77,30.08,10.0,Calm,Calm,-,N/A,,Scattered Clouds,0,2012-11-20 22:35:00
5:55 PM,59.0,53.6,82,30.07,10.0,Calm,Calm,-,N/A,,Scattered Clouds,0,2012-11-20 22:55:00
6:15 PM,59.0,53.6,82,30.08,10.0,Calm,Calm,-,N/A,,Mostly Cloudy,0,2012-11-20 23:15:00
6:35 PM,59.0,53.6,82,30.09,10.0,NNW,3.5,-,N/A,,Scattered Clouds,330,2012-11-20 23:35:00
6:55 PM,59.0,53.6,82,30.09,10.0,NNW,3.5,-,N/A,Rain,Rain,340,2012-11-20 23:55:00
7:15 PM,59.0,53.6,82,30.10,10.0,NNW,3.5,-,N/A,Rain,Light Rain,330,2012-11-21 00:15:00
7:35 PM,57.2,53.6,88,30.11,10.0,NW,3.5,-,N/A,,Scattered Clouds,320,2012-11-21 00:35:00
7:55 PM,57.2,53.6,88,30.11,10.0,Calm,Calm,-,N/A,,Clear,0,2012-11-21 00:55:00
8:15 PM,53.6,53.6,100,30.11,10.0,Calm,Calm,-,N/A,,Clear,0,2012-11-21 01:15:00
8:35 PM,55.4,53.6,94,30.11,10.0,Calm,Calm,-,N/A,,Clear,0,2012-11-21 01:35:00
8:55 PM,53.6,51.8,94,30.11,10.0,Calm,Calm,-,N/A,,Clear,0,2012-11-21 01:55:00
9:15 PM,53.6,53.6,100,30.12,10.0,Calm,Calm,-,N/A,,Mostly Cloudy,0,2012-11-21 02:15:00
9:55 PM,55.4,53.6,94,30.12,10.0,Calm,Calm,-,N/A,,Overcast,0,2012-11-21 02:55:00
10:15 PM,55.4,51.8,88,30.11,10.0,Calm,Calm,-,N/A,,Overcast,0,2012-11-21 03:15:00
10:35 PM,53.6,53.6,100,30.11,10.0,Calm,Calm,-,N/A,,Scattered Clouds,0,2012-11-21 03:35:00
10:55 PM,53.6,51.8,94,30.11,10.0,NW,3.5,-,N/A,,Scattered Clouds,320,2012-11-21 03:55:00
11:15 PM,53.6,51.8,94,30.11,10.0,NW,3.5,-,N/A,,Scattered Clouds,320,2012-11-21 04:15:00
11:35 PM,53.6,51.8,94,30.11,10.0,Calm,Calm,-,N/A,,Scattered Clouds,0,2012-11-21 04:35:00
11:55 PM,53.6,53.6,100,30.11,10.0,NW,3.5,-,N/A,,Scattered Clouds,310,2012-11-21 04:55:00